Regional Weather Roundup
Issued by NWS

Home | Current Version | Previous Version | Text Only | Print | Product List | Glossary On
Versions: 1 2 3 4 5 6 7 8 9 10 11 12 13 14 15 16 17 18 19 20 21 22 23 24 25 26 27 28 29 30 31 32 33 34 35 36 37 38 39 40 41 42 43 44 45 46 47 48 49 50
000
ASUS43 KMPX 022110
RWRMN
WEATHER ROUNDUP FOR MINNESOTA
NATIONAL WEATHER SERVICE TWIN CITIES/CHANHASSEN MN
400 PM CDT TUE SEP 02 2014


NOTE: "FAIR" INDICATES FEW OR NO CLOUDS BELOW 12,000 FEET WITH NO
SIGNIFICANT WEATHER AND/OR OBSTRUCTIONS TO VISIBILITY. N/A MEANS
CURRENT SKY AND/OR WEATHER CONDITIONS ARE NOT AVAILABLE.

MNZ060>063-068>070-022200-
   Twin Cities Metro

CITY           SKY/WX    TMP DP  RH WIND       PRES   REMARKS
TWIN CITIES    MOSUNNY   78  48  34 SW10G20   29.88F
ST PAUL        SUNNY     76  50  40 SW13      29.88F
CRYSTAL        SUNNY     78  48  34 SW12      29.87S
BLAINE         SUNNY     79  50  36 SW10      29.88S
LAKEVILLE      SUNNY     75  54  46 W10       29.90S
EDEN PRAIRIE   SUNNY     78  52  40 SW13G18   29.88F
SOUTH ST PAUL  SUNNY     78  47  33 SW12      29.88F
LAKE ELMO      FAIR      77  50  38 W9        29.89F
$$
MNZ001>005-007-008-013>017-022>024-027-028-022200-
   Northwest Minnesota

CITY           SKY/WX    TMP DP  RH WIND       PRES   REMARKS
BEMIDJI        MOSUNNY   73  51  46 SW15G22   29.78F
HALLOCK        MOSUNNY   73  57  56 S16       29.65F
ROSEAU         MOSUNNY   72  54  53 S8        29.71F
WARROAD        MOSUNNY   72  52  49 S7        29.72F
THIEF RVR FALL SUNNY     73  52  46 SW15      29.73F
CROOKSTON      SUNNY     75  57  53 SW18      29.73F
FOSSTON        MOSUNNY   72  55  56 S17       29.77F
DETROIT LAKES  MOSUNNY   75  50  41 SW17      29.81F
MOORHEAD       SUNNY     79  54  41 SW12G18   29.77F
PARK RAPIDS    MOSUNNY   73  52  47 SW15      29.81F
MAHNOMEN       FAIR      73  54  52 SW13G24   29.77F
$$
MNZ006-009>011-018-025>026-022200-
   North Central Minnesota

CITY           SKY/WX    TMP DP  RH WIND       PRES   REMARKS
BAUDETTE       MOSUNNY   72  48  42 S7        29.73F
FLAG ISLAND    MOSUNNY   68  55  64 S8        29.70F
INTL FALLS     CLOUDY    70  49  47 W6        29.75F
WASKISH        MOSUNNY   72  55  56 SW6       29.76F
BIG FORK       CLOUDY    63  57  82 CALM      29.81F
LONGVILLE      MOSUNNY   72  52  49 SW7       29.81S
GRAND RAPIDS   CLOUDY    73  52  46 SW14G22   29.80S
CRANE LAKE     MOSUNNY   70  43  37 W6        29.78R
ORR            MOSUNNY   66  46  48 SW14G29   29.79R
COOK           TSTM      59  54  82 W24G32    29.84R
WALKER         MOCLDY    71  53  51 W12G17    29.80F
$$
MNZ012-019>021-037-022200-
   Northeast Minnesota

CITY           SKY/WX    TMP DP  RH WIND       PRES   REMARKS
DULUTH         PTSUNNY   73  47  39 SW18G26   29.81F
ELY            MOSUNNY   70  45  40 W13G20    29.78R
HIBBING        LGT RAIN  64  55  72 NW5       29.80F
EVELETH        PTSUNNY   64  45  48 W8G16     29.81R
DULUTH HARBOR  MOSUNNY   77  52  41 SW21G28   29.79F
TWO HARBORS    MOSUNNY   72  52  49 SW15G23   29.78R
SILVER BAY     MOSUNNY   70  57  64 S9        29.77S
GRAND MARAIS     N/A     64  60  87 VRB5      29.77S
G MARAIS ARPRT PTSUNNY   66  50  55 S5        29.80F
$$
MNZ029>031-032-039>041-046>048-054>057-064-022200-
   West Central Minnesota

CITY           SKY/WX    TMP DP  RH WIND       PRES   REMARKS
FERGUS FALLS   SUNNY     77  48  36 SW14      29.80F
WHEATON        SUNNY     75  54  46 SW12G18   29.84S
MORRIS         SUNNY     79  55  44 SW10      29.84F
ALEXANDRIA     MOSUNNY   76  53  44 SW16      29.87F
ELBOW LAKE     FAIR      76  55  49 SW13      29.83F
WADENA         SUNNY     73  52  46 SW12G20   29.82F
GLENWOOD       MOSUNNY   77  54  44 SW15G23   29.87F
APPLETON       SUNNY     81  52  36 SW10      29.85F
BENSON         MOSUNNY   77  55  47 W10       29.86F
ORTONVILLE     SUNNY     79  52  38 SW10G18   29.85F
MADISON        SUNNY     79  55  44 W12       29.87S
WILLMAR        FAIR      75  55  50 SW9       29.89F
$$
MNZ033>034-036-042>043-049>051-058-059-022200-
   Central Minnesota

CITY           SKY/WX    TMP DP  RH WIND       PRES   REMARKS
ST CLOUD       MOSUNNY   79  49  34 SW13      29.86F
SAUK CENTRE    FAIR      75  54  46 SW15G22   29.87F
PAYNESVILLE    HVY RAIN  73  52  47 S14G21    29.88F
AITKIN         MOSUNNY   77  50  38 SW8G17    29.82S
PINE RIVER     MOSUNNY   75  52  43 SW8G17    29.85F
BRAINERD       SUNNY     75  48  38 W18G28    29.84F
STAPLES        MOSUNNY   75  52  43 SW15      29.84S
LONG PRAIRIE   FAIR      73  52  46 SW15G23   29.86F
LITTLE FALLS   MOSUNNY   75  46  35 SW9G16    29.86S
LITCHFIELD     SUNNY     77  54  44 SW10      29.89F
BUFFALO        SUNNY     76  50  40 SW8       29.89F
MAPLE LAKE     SUNNY     76  54  45 SW7       29.89F
$$
MNZ037-044-045-052-053-022200-
   East Central Minnesota

CITY           SKY/WX    TMP DP  RH WIND       PRES   REMARKS
PRINCETON      SUNNY     79  52  38 S9        29.87F
MORA           MOSUNNY   73  48  40 SW10      29.87S
CAMBRIDGE      SUNNY     79  55  44 SW8       29.85F
RUSH CITY      SUNNY     76  53  43 SW7       29.87S
MOOSE LAKE     SUNNY     75  48  38 W14G20    29.81F
HINCKLEY       FAIR      77  54  44 SW13      29.85F
CLOQUET        MOSUNNY   73  46  38 SW12G23   29.82F
MCGREGOR       MOSUNNY   73  50  43 SW8       29.82F
$$
MNZ071>073-080-081-089-090-097-098-022200-
   Southwest Minnesota

CITY           SKY/WX    TMP DP  RH WIND       PRES   REMARKS
MONTEVIDEO     MOSUNNY   81  55  41 W9        29.88F
GRANITE FALLS  MOSUNNY   76  57  50 SW12G17   29.90S
CANBY          SUNNY     78  51  39 SW14      29.89F
MARSHALL       MOSUNNY   79  52  38 W15G21    29.89S
REDWOOD FALLS  PTSUNNY   78  55  44 SW9       29.89S
OLIVIA         MOSUNNY   73  54  49 SW7       29.89S
PIPESTONE      MOSUNNY   73  57  56 SW10      29.94S
WINDOM         MOSUNNY   75  55  50 SW10      29.93F
WORTHINGTON    PTSUNNY   73  55  53 SW9G16    29.96S
JACKSON        MOSUNNY   73  54  49 W10       29.95S
TRACY          MOSUNNY   77  55  46 W7        29.92S
SLAYTON        MOSUNNY   74  52  45 SW5       29.94F
$$
MNZ065>067-074>077-082>085-091>093-022200-
   South Central Minnesota

CITY           SKY/WX    TMP DP  RH WIND       PRES   REMARKS
MANKATO        MOSUNNY   75  54  46 SW12      29.91F
NEW ULM        SUNNY     75  54  46 SW9       29.90F
ST JAMES       MOSUNNY   81  55  41 S8        29.93S
FAIRMONT       MOSUNNY   77  54  44 W9        29.93S
GLENCOE        SUNNY     77  49  37 SW10      29.90S
FARIBAULT      SUNNY     79  52  38 SW9       29.92S
OWATONNA       MOSUNNY   75  57  53 SW10      29.93S
WASECA         MOSUNNY   73  54  49 W9        29.94S
ALBERT LEA     SUNNY     77  57  50 SW10G16   29.94S
$$
MNZ078>079-086>088-094>096-022200-
   Southeast Minnesota

CITY           SKY/WX    TMP DP  RH WIND       PRES   REMARKS
ROCHESTER      SUNNY     76  56  49 W10       29.94S
RED WING       SUNNY     81  46  30 W13       29.88S
STANTON        MOSUNNY   77  53  43 W10       29.90S
DODGE CENTER   MOSUNNY   75  57  53 W14       29.93S
WINONA         SUNNY     77  55  47 W7        29.91S
AUSTIN         SUNNY     75  55  50 W10G17    29.93F
PRESTON        MOSUNNY   75  62  62 CALM      29.94S
$$
ABBREVIATIONS USED IN REMARKS
   TC - TEMPERATURES IN CELSIUS
  WCI - WIND CHILL INDEX
   HX - HEAT INDEX
  VSB - VISIBILITY
$$



USA.gov is the U.S. government's official web portal to all federal, state and local government web resources and services.